RH
47 55 54 54 51 45 39 46 49 40 40 34 30 28 27 26 28 30 29 30 29 29 28 26 25 24 24 24 23 22 22 22 20 19 18 17 16 18 18 19 20 20 22
60 57 52 46 49 48 47 49 48 42 38 37 36 28 26 26 26 27 30 30 30 29 28 28 26 26 23 23 22 22 20 19 18 18 18 18 19 23 25 25 25 23 24
66 61 52 49 52 57 56 49 51 43 42 40 33 33 27 26 28 27 30 29 27 28 28 27 28 27 26 27 25 23 23 23 21 21 21 21 22 24 26 27 26 26 28
66 77 68 53 54 54 60 56 47 44 51 43 36 34 31 29 29 28 30 31 32 30 28 26 26 26 26 25 23 21 19 17 15 15 14 15 16 20 23 25 29 28 27
54 74 81 72 55 54 59 59 47 52 51 48 48 39 33 31 33 31 31 32 34 32 32 34 29 23 19 18 19 19 19 18 16 15 14 14 15 15 16 20 26 28 30
51 67 74 72 61 56 50 52 51 54 53 56 56 59 39 39 33 34 35 36 38 37 33 33 23 17 18 19 17 18 18 17 17 17 16 16 16 16 18 20 21 26 29
51 59 67 63 65 59 56 53 58 55 58 58 64 80 64 50 45 42 38 40 42 42 35 30 20 21 21 19 20 20 22 24 24 23 21 20 20 20 21 26 24 25 30
52 50 47 43 54 57 54 53 55 56 57 52 57 68 78 67 50 52 50 51 48 43 37 26 25 24 21 23 24 24 23 26 29 30 28 24 25 25 28 33 34 38 38
50 56 46 38 40 48 51 53 55 62 62 58 56 67 86 89 82 67 63 60 55 49 33 26 26 26 24 24 27 28 30 33 32 34 30 28 29 32 31 34 36 38 38
48 58 56 46 42 44 50 52 50 59 63 63 67 70 77 72 82 73 76 73 70 46 30 26 28 28 28 30 34 36 37 37 40 42 37 36 34 34 34 37 38 37 41
60 59 61 56 48 48 49 45 44 49 50 52 69 66 70 70 76 78 71 78 63 36 30 28 31 30 31 40 41 42 40 40 41 43 43 42 42 42 43 45 49 53 48
78 98 66 63 54 44 39 38 39 35 40 43 47 51 57 60 60 70 74 67 47 32 29 29 34 36 43 48 51 48 48 47 47 44 43 42 46 51 58 60 58 53 50
61 59 58 54 53 57 51 45 40 38 34 32 33 35 35 47 54 62 65 53 36 35 33 36 38 39 50 57 51 51 54 56 52 50 51 47 49 51 52 51 50 50 47
100 66 63 52 48 48 45 54 53 48 44 41 38 38 37 40 49 55 50 45 45 43 37 37 38 46 59 59 61 60 63 51 50 52 65 52 56 52 52 48 53 52 49
100 100 99 94 70 50 54 72 77 74 70 65 58 53 51 42 39 41 42 47 52 54 48 42 44 47 73 75 83 72 68 52 48 56 62 63 54 68 64 53 54 56 42
100 97 100 100 99 100 100 100 100 100 100 99 87 79 71 66 52 46 46 49 57 56 55 52 60 84 90 94 89 81 55 49 46 50 58 71 70 74 81 63 57 49 47
100 100 100 100 100 100 100 100 100 100 100 100 100 100 94 93 90 77 63 62 62 78 88 88 90 100 100 100 93 60 50 54 44 52 68 66 80 85 89 97 68 47 44
100 100 100 100 100 95 100 100 91 100 100 100 100 100 100 98 100 86 75 71 81 97 100 100 100 100 100 100 86 67 59 51 48 52 63 62 88 100 90 66 67 69 76
100 98 100 100 100 89 95 100 96 97 100 100 100 100 100 100 100 100 100 100 100 100 100 100 100 100 99 96 88 80 66 65 56 50 56 83 100 92 78 62 57 60 67
100 100 100 100 92 100 100 90 100 100 100 100 100 100 100 100 100 100 100 100 100 100 100 100 100 100 97 95 100 75 65 85 59 58 84 78 100 93 54 39 51 53 52
100 100 100 100 100 100 100 100 84 89 100 93 100 100 100 100 100 100 100 100 100 100 100 100 100 100 100 97 85 74 78 70 71 62 51 48 48 43 39 31 33 44 54
100 96 100 98 100 100 100 100 94 100 76 87 100 98 100 100 100 100 100 100 100 100 100 100 100 100 100 99 89 80 80 95 75 63 52 48 40 34 30 33 49 68 60
97 100 100 100 100 100 100 100 100 99 95 100 86 100 100 100 100 100 100 100 96 100 100 100 100 100 90 82 96 100 76 66 85 62 48 35 33 37 34 46 50 70 88
100 95 100 100 100 100 100 100 100 97 100 87 99 100 100 100 100 100 100 100 100 100 100 100 100 100 100 100 100 93 100 100 94 65 36 45 39 46 66 77 80 72 71
100 96 93 100 100 100 100 100 100 100 100 94 100 100 100 100 100 100 100 99 91 100 100 89 100 100 100 100 100 100 91 98 84 55 48 95 99 68 78 63 72 57 70
99 100 100 99 92 100 100 100 100 100 100 100 100 98 100 100 83 96 96 100 100 100 100 100 94 71 70 48 56 61 69 51 34 48 82 98 91 83 68 55 51 66 74
Wind_Speed
47 45 44 42 40 38 37 34 31 30 27 27 26 25 24 21 20 18 16 16 16 16 16 16 15 15 15 17 19 20 20 22 23 25 26 27 27 28 29 29 30 32 32
50 48 47 45 42 40 38 35 33 32 30 29 29 27 26 24 23 21 20 20 21 21 20 20 19 20 21 22 22 23 24 26 26 27 28 28 27 26 27 28 30 32 33
55 54 50 47 44 43 40 37 36 36 33 32 33 29 27 25 24 24 24 23 23 24 24 24 24 24 25 25 23 24 24 24 25 25 25 25 27 27 28 29 30 31 32
58 56 55 52 49 47 43 41 40 38 35 35 36 34 30 26 26 26 26 27 27 27 26 26 26 25 24 22 20 19 19 20 21 23 24 26 27 28 30 31 32 32 33
59 59 58 56 54 52 48 45 42 40 41 37 38 37 35 30 28 29 30 29 30 29 28 28 26 20 17 16 15 17 20 23 25 26 28 30 30 31 33 33 34 34 33
61 61 60 58 56 53 51 49 46 44 43 42 41 40 40 36 34 32 32 32 33 33 30 27 23 20 19 19 21 22 23 25 27 28 31 33 35 35 35 35 35 36 36
61 62 61 60 58 56 54 52 49 48 47 45 44 42 43 40 38 37 36 36 36 35 34 26 23 23 23 23 24 24 25 28 31 33 36 36 37 37 37 36 36 36 37
64 62 61 60 59 58 56 53 52 50 49 48 45 44 44 43 42 40 40 39 40 38 31 25 26 26 26 27 28 28 30 33 34 36 38 40 40 38 38 38 38 39 39
68 63 61 58 56 57 56 55 53 52 51 50 48 47 47 45 45 43 41 41 42 37 31 28 29 28 28 30 31 34 35 37 38 38 40 39 39 39 39 40 40 40 39
70 64 60 58 56 55 54 53 53 52 51 50 49 48 48 48 47 46 43 43 42 37 31 29 32 32 30 31 33 35 38 38 37 39 38 38 38 40 43 43 42 40 39
70 66 63 58 56 54 52 51 50 50 50 47 49 49 49 50 49 47 44 42 41 37 34 33 34 33 34 35 37 39 41 42 39 39 38 39 40 41 42 40 41 42 41
55 63 67 62 59 55 53 51 50 49 49 47 47 48 48 49 48 48 45 41 40 38 37 37 36 36 37 38 39 41 43 44 41 40 41 44 43 43 41 42 43 43 41
71 71 69 65 59 56 53 52 52 52 50 50 49 48 45 45 45 43 41 40 40 41 40 39 39 40 40 41 42 44 44 41 43 45 44 45 41 38 38 40 40 41 42
47 64 63 65 61 57 55 56 55 54 54 53 51 49 47 45 44 43 42 41 41 44 44 42 42 43 44 44 46 47 44 45 45 47 44 42 40 37 38 40 41 42 41
62 59 50 52 59 57 55 54 54 53 54 55 54 52 50 49 47 46 45 44 44 45 45 45 46 48 48 47 48 48 43 44 46 45 42 43 40 37 39 41 41 41 43
71 49 47 54 56 49 52 51 51 53 55 57 57 54 54 52 50 49 48 47 46 47 49 49 50 50 50 48 48 44 47 46 45 43 44 46 44 44 46 45 45 45 44
62 58 59 70 58 56 56 53 52 49 52 58 58 57 58 55 54 52 50 47 46 47 50 51 53 50 50 48 47 46 46 45 43 45 46 49 49 50 50 47 51 53 52
67 69 60 53 66 71 64 59 60 50 55 58 62 59 60 58 56 51 49 48 49 48 49 48 50 53 49 47 47 47 46 45 49 48 49 54 49 49 50 55 56 57 56
82 72 54 60 63 63 69 55 54 52 57 56 61 62 59 58 56 53 50 46 46 48 49 49 51 51 53 54 52 47 46 49 51 52 55 53 52 54 58 60 62 59 58
71 65 60 58 53 63 77 68 62 50 49 51 56 62 57 53 53 50 49 49 48 45 45 50 51 50 50 47 49 50 53 52 56 57 56 53 53 58 64 66 70 72 66
81 75 69 73 78 51 62 62 50 44 44 46 44 48 52 53 54 51 50 50 48 47 49 49 52 57 56 55 56 57 57 56 59 59 62 65 64 69 71 72 69 69 68
84 88 89 82 71 76 66 58 61 61 54 47 48 48 51 54 54 53 53 52 53 51 49 45 49 54 57 59 63 59 62 64 64 64 68 69 70 73 73 73 72 71 74
87 82 81 87 83 77 68 64 70 67 58 53 52 53 51 53 57 53 53 51 48 50 51 54 61 60 60 59 60 64 69 70 67 69 74 77 76 73 75 73 75 71 71
91 85 86 81 82 72 65 72 66 56 54 52 51 47 48 46 49 51 51 48 52 49 56 60 58 58 60 60 64 68 67 69 73 78 82 81 82 78 73 73 69 66 67
89 90 98 86 78 76 70 76 69 63 69 60 56 52 51 56 52 56 55 55 50 53 58 58 61 62 64 66 66 69 69 75 80 83 80 81 84 78 76 76 75 82 83
94 86 92 89 89 83 84 73 69 75 68 57 61 66 60 65 65 60 51 49 59 61 62 66 67 71 72 78 79 80 82 82 78 77 77 80 85 85 84 86 86 84 89
Wind_Direction
239 239 238 238 240 246 250 251 253 256 258 257 264 261 258 257 259 254 259 265 267 269 270 270 270 271 276 276 276 280 283 284 285 288 289 291 291 292 292 292 292 291 290
239 237 237 239 239 241 242 248 252 253 258 260 259 260 260 255 257 256 255 257 261 266 270 273 275 278 281 281 281 283 283 284 284 286 287 285 285 287 288 289 290 291 293
237 239 238 236 236 238 239 242 246 253 258 260 260 260 259 260 258 257 261 261 263 265 266 268 270 274 277 278 279 281 284 285 286 287 289 290 289 288 286 287 289 289 292
236 237 240 238 238 238 237 239 244 251 253 256 262 265 262 260 259 259 261 267 271 271 274 274 272 275 275 276 276 282 286 290 294 297 298 300 299 297 296 293 291 293 293
235 234 237 239 237 238 237 239 243 245 248 251 256 263 263 262 261 260 264 268 272 273 276 278 275 267 267 266 273 282 286 292 294 297 299 299 298 299 297 295 294 294 294
232 234 235 236 238 239 239 241 243 243 247 251 254 258 262 264 262 263 265 269 275 277 276 272 263 261 268 271 273 281 290 297 299 299 300 301 299 298 296 295 294 294 293
230 232 234 236 238 239 241 242 241 242 246 248 252 255 261 262 264 265 267 271 274 274 275 264 261 268 271 276 286 293 297 302 303 304 305 301 300 301 304 301 300 299 299
230 232 234 237 238 241 242 243 244 245 247 250 251 254 257 261 262 266 270 273 276 276 272 256 258 268 276 285 291 295 297 300 303 305 303 303 304 304 305 305 304 303 303
229 230 232 235 238 241 243 244 244 245 246 250 252 251 256 259 263 265 269 272 274 274 264 252 259 268 275 284 291 294 299 303 303 303 304 306 306 305 304 303 302 302 302
229 229 231 233 236 239 242 244 246 246 247 249 250 251 255 258 262 265 267 271 274 272 258 253 263 272 279 284 288 292 295 299 300 300 301 302 302 305 304 303 304 306 307
230 230 230 231 232 236 239 242 243 245 248 248 251 252 253 256 260 265 267 268 268 264 258 259 269 274 281 285 289 292 294 295 297 297 298 297 297 300 300 305 307 309 309
224 229 231 231 231 233 235 239 242 245 247 250 251 253 255 257 259 260 264 263 263 262 261 264 270 277 282 286 290 291 292 292 293 294 292 297 297 300 302 306 307 307 306
222 229 231 233 234 234 236 238 240 244 247 250 251 253 254 256 257 258 259 260 260 262 263 267 270 276 280 284 287 288 291 290 293 293 293 296 297 301 304 305 305 305 307
226 236 234 237 238 239 241 241 241 244 247 249 252 254 255 253 253 255 257 258 262 267 267 267 270 276 279 283 286 287 287 290 291 292 291 294 296 299 302 304 306 307 308
220 222 226 233 238 239 242 243 244 245 249 251 252 254 254 254 254 255 255 258 263 268 270 270 272 276 278 279 285 286 284 288 290 291 290 293 293 297 302 304 304 306 308
208 214 225 227 238 238 238 240 247 247 253 253 252 256 256 256 255 256 258 260 262 265 270 272 274 277 277 281 283 282 285 287 290 294 292 293 289 291 301 304 304 303 306
196 206 200 225 232 238 247 244 249 253 258 258 256 253 255 255 256 258 258 260 263 266 270 274 277 277 279 280 281 282 286 286 290 291 291 294 290 291 296 302 303 303 305
188 208 210 197 222 239 243 243 250 253 258 261 256 257 254 255 257 257 256 258 265 267 272 274 279 279 282 280 279 283 284 283 290 290 289 293 288 288 295 300 301 301 305
189 201 195 194 219 238 240 245 246 255 258 257 258 263 257 255 253 258 261 261 266 268 271 277 278 278 279 280 281 281 286 282 290 292 291 288 283 284 292 298 300 296 299
179 193 199 184 217 222 231 244 248 246 244 249 255 259 258 254 255 256 257 261 265 270 276 279 274 276 277 278 279 280 283 283 290 291 286 285 280 280 293 298 298 298 298
193 188 181 187 202 214 221 236 236 234 234 240 244 253 254 255 257 257 261 261 262 266 270 270 271 276 273 279 283 282 282 284 286 281 282 282 285 289 293 297 299 296 299
191 193 199 203 210 212 221 233 234 234 244 242 249 245 249 250 253 256 259 257 258 259 261 264 269 272 276 280 281 281 283 285 282 282 284 284 288 288 294 301 304 300 300
195 196 200 202 198 204 217 229 235 235 240 244 245 247 249 252 250 248 252 254 256 256 258 263 269 273 277 281 278 280 281 281 276 280 284 286 291 296 301 303 300 298 297
198 201 197 196 198 205 213 219 226 227 239 236 238 244 244 246 246 249 253 255 255 256 260 262 268 269 274 276 275 279 275 275 275 283 288 291 298 299 297 296 294 293 297
192 203 195 194 200 211 217 218 222 227 234 238 233 238 244 248 250 247 252 260 270 260 260 266 266 268 270 271 274 272 275 276 275 282 294 293 291 295 293 296 293 295 300
192 194 197 202 207 212 212 216 221 224 227 235 235 238 238 245 239 239 233 242 258 257 260 262 265 266 268 273 273 276 276 281 286 293 288 286 288 294 296 296 300 295 299